Flag for Germany Weather past 2 weeks in Lünen, North Rhine-Westphalia, Germany

Now
39 °F

Light rain. Passing clouds.


Feels Like: 30 °F
Forecast: 41 / 46 °F
Wind: 17 mph from Southwest

Location: Dortmund / Wickede

Current Time: Mar 26, 2015 at 11:35:39 PM

Latest Report: Mar 26, 2015 at 10:50 PM


Visibility: N/A

Pressure: 29.74 "Hg

Humidity: 87%

Dew point: 36 °F

Location of LünenLocation

Historic Weather in Lünen — Graph

°F

Lünen temperature yesterday

Maximum temperature yesterday: 54 °F (at 11:50 AM)
Minimum temperature yesterday: 41 °F (at 5:20 AM)
Average temperature yesterday: 45 °F

Past Weeks' High & Low Weather Summary

 TemperatureHumidityPressure
High61 °F (Mar 17, 2:50 PM)93% (Mar 12, 7:20 AM)30.48 "Hg (Mar 12, 7:20 AM)
Low28 °F (Mar 12, 5:50 AM)39% (Mar 17, 3:20 PM)29.62 "Hg (Mar 25, 5:50 AM)
Average43 °F74%30.14 "Hg
* Reported Mar 11 10:20 PM — Mar 26 10:20 PM, Lünen, Weather by CustomWeather, © 2015

Note: Actual official high and low records may vary slightly from our data, if they occured in-between our weather recording intervals... More about our weather records

Advertising

Lünen weather history for previous 24 hours

 ConditionsComfort  
Time TempWeatherWind HumidityBarometerVisibility
10:20 PM
Thu, Mar 26
39 °FPassing clouds.16 mph81%29.71 "HgN/A
9:50 PM39 °FPassing clouds.17 mph81%29.71 "HgN/A
9:20 PM39 °FPassing clouds.14 mph81%29.71 "HgN/A
8:50 PM39 °FPartly cloudy.14 mph81%29.71 "HgN/A
8:20 PM39 °FLight rain. Partly cloudy.13 mph81%29.71 "HgN/A
7:50 PM41 °FPartly cloudy.12 mph76%29.71 "HgN/A
7:20 PM41 °FPassing clouds.12 mph70%29.71 "HgN/A
6:50 PM41 °FOvercast.13 mph70%29.71 "HgN/A
6:20 PM41 °FOvercast.12 mph70%29.71 "HgN/A
5:50 PM41 °FLight rain. Partly sunny.15 mph70%29.71 "HgN/A
5:20 PM41 °FBroken clouds.17 mph70%29.71 "HgN/A
4:50 PM43 °FLight rain. Broken clouds.14 mph66%29.71 "HgN/A
4:20 PM45 °FLight rain. Broken clouds.16 mph53%29.71 "HgN/A
3:50 PM46 °FPartly sunny.10 mph50%29.71 "HgN/A
3:20 PM46 °FSunny.13 mph46%29.71 "Hg10 mi
2:50 PM48 °FPartly sunny.13 mph46%29.68 "HgN/A
2:20 PM46 °FBroken clouds.13 mph50%29.71 "HgN/A
1:50 PM46 °FPartly sunny.10 mph53%29.71 "HgN/A
1:20 PM46 °FPartly sunny.12 mph53%29.71 "HgN/A
12:50 PM45 °FPartly sunny.28 mph57%29.74 "HgN/A
12:20 PM46 °FPartly sunny.10 mph50%29.74 "HgN/A
11:50 AM45 °FPartly sunny.10 mph57%29.77 "HgN/A
11:20 AM43 °FOvercast.10 mph61%29.77 "HgN/A
10:50 AM41 °FOvercast.9 mph70%29.77 "HgN/A
10:20 AM41 °FOvercast.9 mph76%29.77 "HgN/A
9:50 AM41 °FPartly sunny.8 mph76%29.77 "HgN/A
9:20 AM39 °FPartly sunny.8 mph75%29.80 "HgN/A
8:50 AM39 °FPartly sunny.8 mph81%29.77 "HgN/A
8:20 AM41 °FMore clouds than sun.6 mph81%29.77 "Hg4 mi
7:50 AM39 °FPartly sunny.6 mph87%29.77 "Hg5 mi
7:20 AM39 °FPartly sunny.5 mph87%29.77 "Hg6 mi
6:50 AM39 °FBroken clouds.3 mph87%29.77 "HgN/A
6:20 AM39 °FPartly sunny.3 mph87%29.77 "HgN/A
5:50 AM39 °FPassing clouds.5 mph87%29.77 "HgN/A
5:20 AM39 °FPassing clouds.2 mph87%29.74 "HgN/A
Weather by CustomWeather, © 2015

See weather overviewHow to use our weather pages